2012 KA51

Japanese version
Home page
Updated on October 7, 2012

---------------------------------------------------------------------

* Profile

* Orbital Elements

The following orbital elements are taken from MPEC 2012-T06:

Epoch 2012 May 13.0 TT = JDT 2456060.5                  MPC
M   0.05493              (2000.0)            P               Q
n   0.00029321     Peri.   95.03726     +0.00084410     -0.96953191
a 224.3989641      Node   344.95302     -0.06070034     +0.24446230
e   0.9781207      Incl.   70.66163     +0.99815568     +0.01568626
P3361              H   11.1           G   0.15
From 12 observations 2012 May 22-28.  E-assumed.

* Magnitudes Graph

        H = 11.1  G = 0.15

---------------------------------------------------------------------

The orbital elements are published at the MPC Ephemerides and Orbital Elements.
The magnitudes graphs are made with Comet for Windows.

---------------------------------------------------------------------

Copyright(C) Seiichi Yoshida (comet@aerith.net). All rights reserved.